TimeEDT,TemperatureF,Dew PointF,Humidity,Sea Level PressureIn,VisibilityMPH,Wind Direction,Wind SpeedMPH,Gust SpeedMPH,PrecipitationIn,Events,Conditions,WindDirDegrees,DateUTC
12:05 AM,37.0,36.0,96,30.13,1.0,Calm,Calm,-,N/A,,Clear,0,2014-03-24 04:05:00
12:12 AM,37.0,36.0,96,30.14,0.5,Calm,Calm,-,N/A,Fog,Fog,0,2014-03-24 04:12:00
12:22 AM,39.0,37.0,93,30.14,2.5,North,3.5,-,N/A,,Clear,10,2014-03-24 04:22:00
12:29 AM,39.0,37.0,93,30.15,6.0,North,5.8,-,N/A,,Clear,10,2014-03-24 04:29:00
12:54 AM,35.1,34.0,96,30.17,4.0,Calm,Calm,-,N/A,,Clear,0,2014-03-24 04:54:00
1:03 AM,35.1,34.0,96,30.15,2.0,Calm,Calm,-,N/A,,Clear,0,2014-03-24 05:03:00
1:21 AM,36.0,34.0,93,30.15,4.0,Calm,Calm,-,N/A,,Clear,0,2014-03-24 05:21:00
1:54 AM,36.0,34.0,93,30.17,6.0,Calm,Calm,-,N/A,,Clear,0,2014-03-24 05:54:00
2:54 AM,37.0,30.9,79,30.18,10.0,NNE,4.6,-,N/A,,Clear,20,2014-03-24 06:54:00
3:54 AM,30.9,28.9,92,30.18,4.0,Calm,Calm,-,N/A,,Clear,0,2014-03-24 07:54:00
4:54 AM,33.1,28.0,82,30.20,10.0,Calm,Calm,-,N/A,,Clear,0,2014-03-24 08:54:00
5:54 AM,30.0,27.0,88,30.22,10.0,Calm,Calm,-,N/A,,Clear,0,2014-03-24 09:54:00
6:54 AM,32.0,26.1,79,30.24,10.0,NNE,4.6,-,N/A,,Clear,30,2014-03-24 10:54:00
7:54 AM,30.9,26.1,82,30.26,10.0,Calm,Calm,-,N/A,,Clear,0,2014-03-24 11:54:00
8:54 AM,36.0,26.1,67,30.27,10.0,NE,8.1,-,N/A,,Clear,50,2014-03-24 12:54:00
9:54 AM,39.9,23.0,51,30.28,10.0,NNE,8.1,-,N/A,,Clear,30,2014-03-24 13:54:00
10:54 AM,43.0,23.0,45,30.27,10.0,Variable,6.9,-,N/A,,Clear,0,2014-03-24 14:54:00
11:54 AM,45.0,19.0,36,30.26,10.0,Calm,Calm,-,N/A,,Clear,0,2014-03-24 15:54:00
12:54 PM,46.9,18.0,32,30.22,10.0,Variable,3.5,-,N/A,,Clear,0,2014-03-24 16:54:00
1:54 PM,48.9,19.9,32,30.19,10.0,Calm,Calm,-,N/A,,Clear,0,2014-03-24 17:54:00
2:54 PM,52.0,19.0,27,30.14,10.0,NNE,4.6,-,N/A,,Clear,20,2014-03-24 18:54:00
3:54 PM,52.0,19.0,27,30.12,10.0,Variable,4.6,-,N/A,,Clear,0,2014-03-24 19:54:00
4:54 PM,53.1,19.0,26,30.10,10.0,South,4.6,-,N/A,,Clear,180,2014-03-24 20:54:00
5:54 PM,53.1,18.0,25,30.07,10.0,West,6.9,-,N/A,,Clear,260,2014-03-24 21:54:00
6:54 PM,52.0,21.0,30,30.06,10.0,SE,5.8,-,N/A,,Clear,130,2014-03-24 22:54:00
7:54 PM,48.9,21.9,35,30.06,10.0,Calm,Calm,-,N/A,,Clear,0,2014-03-24 23:54:00
8:54 PM,44.1,24.1,45,30.07,10.0,South,4.6,-,N/A,,Clear,170,2014-03-25 00:54:00
9:54 PM,44.1,24.1,45,30.08,10.0,Calm,Calm,-,N/A,,Clear,0,2014-03-25 01:54:00
10:54 PM,44.1,24.1,45,30.07,10.0,SE,4.6,-,N/A,,Clear,130,2014-03-25 02:54:00
11:54 PM,44.1,24.1,45,30.06,10.0,Calm,Calm,-,N/A,,Clear,0,2014-03-25 03:54:00